GFSNW_prec_precacc6_159.txt.gz
Total_Precipitation_Accumulation
0.05 0.03 0.02 0.04 0.05 0.04 0.08 0.07 0.08 0.01 0.09 0.41 0.41 0.26 0.09 0.06 0.00 0.00 0.01 0.01 0.02 0.03 0.01 0.00 0.00 0.00 0.00 0.00 0.00 0.00 0.00 0.00 0.00 0.00 0.00 0.00 0.00 0.00 0.00 0.00 0.00 0.00 0.00 0.00
0.03 0.05 0.04 0.04 0.06 0.05 0.03 0.09 0.06 0.06 0.08 0.25 0.29 0.06 0.01 0.00 0.00 0.02 0.09 0.04 0.01 0.01 0.02 0.01 0.00 0.00 0.00 0.00 0.00 0.00 0.00 0.00 0.00 0.00 0.00 0.00 0.00 0.00 0.00 0.00 0.00 0.00 0.00 0.00
0.03 0.02 0.04 0.04 0.10 0.08 0.07 0.10 0.13 0.17 0.23 0.10 0.08 0.05 0.02 0.01 0.00 0.00 0.08 0.26 0.11 0.03 0.02 0.02 0.01 0.00 0.00 0.00 0.00 0.00 0.00 0.00 0.00 0.00 0.00 0.00 0.00 0.00 0.00 0.00 0.00 0.00 0.00 0.00
0.03 0.03 0.04 0.04 0.08 0.13 0.15 0.29 0.19 0.06 0.15 0.10 0.02 0.02 0.05 0.02 0.02 0.01 0.01 0.04 0.19 0.30 0.18 0.05 0.05 0.01 0.00 0.00 0.00 0.00 0.00 0.00 0.00 0.00 0.00 0.00 0.00 0.00 0.00 0.00 0.00 0.00 0.00 0.00
0.02 0.03 0.05 0.06 0.06 0.18 0.29 0.39 0.22 0.06 0.00 0.00 0.00 0.01 0.02 0.03 0.01 0.01 0.03 0.03 0.00 0.03 0.22 0.20 0.10 0.03 0.01 0.00 0.00 0.00 0.00 0.00 0.00 0.00 0.00 0.00 0.00 0.00 0.00 0.00 0.00 0.00 0.00 0.00
0.02 0.03 0.06 0.08 0.09 0.20 0.63 0.17 0.19 0.09 0.04 0.00 0.01 0.01 0.00 0.01 0.02 0.05 0.03 0.03 0.03 0.02 0.01 0.01 0.04 0.06 0.03 0.01 0.00 0.00 0.00 0.00 0.00 0.00 0.00 0.00 0.00 0.00 0.00 0.00 0.00 0.00 0.00 0.00
0.03 0.04 0.05 0.08 0.12 0.14 0.29 0.17 0.12 0.35 0.15 0.02 0.00 0.00 0.00 0.00 0.01 0.05 0.12 0.04 0.01 0.03 0.01 0.00 0.00 0.01 0.01 0.01 0.00 0.00 0.00 0.00 0.00 0.00 0.00 0.00 0.00 0.00 0.00 0.00 0.00 0.00 0.00 0.00
0.03 0.05 0.05 0.07 0.11 0.16 0.13 0.11 0.13 0.29 0.32 0.08 0.01 0.00 0.00 0.00 0.05 0.06 0.06 0.15 0.06 0.01 0.03 0.06 0.05 0.04 0.03 0.00 0.00 0.00 0.00 0.00 0.00 0.00 0.00 0.00 0.00 0.00 0.00 0.00 0.00 0.00 0.00 0.00
0.03 0.04 0.05 0.06 0.09 0.17 0.15 0.10 0.07 0.15 0.29 0.31 0.11 0.02 0.00 0.00 0.02 0.05 0.03 0.03 0.09 0.06 0.07 0.07 0.06 0.04 0.02 0.00 0.00 0.00 0.00 0.00 0.00 0.00 0.00 0.00 0.00 0.00 0.00 0.00 0.00 0.00 0.00 0.00
0.04 0.03 0.04 0.06 0.06 0.17 0.18 0.12 0.05 0.13 0.19 0.18 0.28 0.21 0.03 0.01 0.01 0.01 0.02 0.01 0.05 0.09 0.12 0.14 0.06 0.01 0.00 0.00 0.00 0.00 0.00 0.00 0.00 0.00 0.00 0.00 0.00 0.00 0.00 0.00 0.00 0.00 0.00 0.00
0.01 0.02 0.03 0.03 0.05 0.12 0.24 0.13 0.06 0.12 0.22 0.16 0.45 0.50 0.20 0.08 0.03 0.01 0.01 0.05 0.06 0.09 0.09 0.05 0.02 0.00 0.00 0.00 0.00 0.00 0.00 0.00 0.00 0.00 0.00 0.00 0.00 0.00 0.00 0.00 0.00 0.00 0.00 0.00
0.00 0.00 0.00 0.00 0.01 0.08 0.22 0.20 0.06 0.09 0.20 0.10 0.17 0.36 0.23 0.20 0.12 0.06 0.01 0.01 0.01 0.01 0.01 0.00 0.00 0.00 0.00 0.00 0.00 0.00 0.00 0.00 0.00 0.00 0.00 0.00 0.00 0.00 0.00 0.00 0.00 0.00 0.00 0.00
0.02 0.00 0.00 0.00 0.01 0.05 0.16 0.19 0.11 0.07 0.06 0.18 0.24 0.23 0.24 0.13 0.09 0.08 0.07 0.02 0.01 0.00 0.00 0.00 0.00 0.00 0.00 0.00 0.00 0.00 0.00 0.00 0.00 0.00 0.00 0.00 0.00 0.00 0.00 0.00 0.00 0.00 0.00 0.00
0.03 0.02 0.00 0.00 0.01 0.05 0.10 0.13 0.10 0.11 0.07 0.27 0.36 0.31 0.29 0.20 0.13 0.05 0.04 0.01 0.01 0.00 0.00 0.00 0.00 0.00 0.00 0.00 0.00 0.00 0.00 0.00 0.00 0.00 0.00 0.00 0.00 0.00 0.00 0.00 0.00 0.00 0.00 0.00
0.04 0.02 0.00 0.00 0.02 0.06 0.08 0.06 0.06 0.14 0.15 0.11 0.15 0.33 0.28 0.28 0.27 0.04 0.01 0.01 0.02 0.00 0.00 0.00 0.00 0.00 0.00 0.00 0.00 0.00 0.00 0.00 0.00 0.00 0.00 0.00 0.00 0.00 0.00 0.00 0.00 0.00 0.00 0.00
0.04 0.02 0.01 0.01 0.03 0.08 0.12 0.15 0.06 0.10 0.16 0.23 0.27 0.29 0.31 0.24 0.17 0.07 0.01 0.00 0.01 0.00 0.00 0.00 0.00 0.00 0.00 0.00 0.00 0.00 0.00 0.00 0.00 0.00 0.00 0.00 0.00 0.00 0.00 0.00 0.00 0.00 0.00 0.00
0.03 0.02 0.01 0.02 0.06 0.06 0.05 0.08 0.01 0.05 0.13 0.26 0.26 0.27 0.26 0.11 0.03 0.01 0.00 0.00 0.00 0.00 0.00 0.00 0.00 0.00 0.00 0.00 0.00 0.00 0.00 0.00 0.00 0.00 0.00 0.00 0.00 0.00 0.00 0.00 0.00 0.00 0.00 0.00
0.03 0.02 0.02 0.06 0.11 0.06 0.05 0.04 0.01 0.01 0.16 0.14 0.16 0.15 0.16 0.05 0.00 0.00 0.00 0.00 0.00 0.00 0.00 0.00 0.00 0.00 0.00 0.00 0.00 0.00 0.00 0.00 0.00 0.00 0.00 0.00 0.00 0.00 0.00 0.00 0.00 0.00 0.00 0.00
0.02 0.04 0.09 0.19 0.12 0.05 0.08 0.09 0.06 0.01 0.09 0.04 0.04 0.03 0.02 0.00 0.00 0.00 0.00 0.00 0.00 0.00 0.00 0.00 0.00 0.00 0.00 0.00 0.00 0.00 0.00 0.00 0.00 0.00 0.00 0.00 0.00 0.00 0.00 0.00 0.00 0.00 0.00 0.00
0.06 0.16 0.28 0.29 0.07 0.07 0.35 0.45 0.26 0.03 0.01 0.00 0.00 0.00 0.00 0.00 0.00 0.00 0.00 0.00 0.00 0.00 0.00 0.00 0.00 0.00 0.00 0.00 0.00 0.00 0.00 0.00 0.00 0.00 0.00 0.00 0.00 0.00 0.00 0.00 0.00 0.00 0.00 0.00
0.07 0.13 0.15 0.05 0.09 0.19 0.40 0.24 0.07 0.01 0.01 0.00 0.00 0.00 0.00 0.00 0.00 0.00 0.00 0.00 0.00 0.00 0.00 0.00 0.00 0.00 0.00 0.00 0.00 0.00 0.00 0.00 0.00 0.00 0.00 0.00 0.00 0.00 0.00 0.00 0.00 0.00 0.00 0.00
0.01 0.06 0.07 0.08 0.12 0.13 0.09 0.02 0.00 0.00 0.00 0.00 0.00 0.00 0.00 0.00 0.00 0.00 0.00 0.00 0.00 0.00 0.00 0.00 0.00 0.00 0.00 0.00 0.00 0.00 0.00 0.00 0.00 0.00 0.00 0.00 0.00 0.00 0.00 0.00 0.00 0.00 0.00 0.00
0.01 0.00 0.01 0.03 0.03 0.01 0.00 0.00 0.00 0.00 0.00 0.00 0.00 0.00 0.00 0.00 0.00 0.00 0.00 0.00 0.00 0.00 0.00 0.00 0.00 0.00 0.00 0.00 0.00 0.00 0.00 0.00 0.00 0.00 0.00 0.00 0.00 0.00 0.00 0.00 0.00 0.00 0.00 0.00
0.00 0.00 0.00 0.00 0.00 0.00 0.00 0.00 0.00 0.00 0.00 0.00 0.00 0.00 0.00 0.00 0.00 0.00 0.00 0.00 0.00 0.00 0.00 0.00 0.00 0.00 0.00 0.00 0.00 0.00 0.00 0.00 0.00 0.00 0.00 0.00 0.00 0.00 0.00 0.00 0.00 0.00 0.00 0.00
0.00 0.00 0.00 0.00 0.00 0.00 0.00 0.00 0.00 0.00 0.00 0.00 0.00 0.00 0.00 0.00 0.00 0.00 0.00 0.00 0.00 0.00 0.00 0.00 0.00 0.00 0.00 0.00 0.00 0.00 0.00 0.00 0.00 0.00 0.00 0.00 0.00 0.00 0.00 0.00 0.00 0.00 0.00 0.00
0.00 0.02 0.03 0.03 0.01 0.00 0.00 0.00 0.00 0.00 0.00 0.00 0.00 0.00 0.00 0.00 0.00 0.00 0.00 0.00 0.00 0.00 0.00 0.00 0.00 0.00 0.00 0.00 0.00 0.00 0.00 0.00 0.00 0.00 0.00 0.00 0.00 0.00 0.00 0.00 0.00 0.00 0.00 0.00
0.00 0.04 0.04 0.02 0.02 0.01 0.00 0.00 0.00 0.00 0.00 0.00 0.00 0.00 0.00 0.00 0.00 0.00 0.00 0.00 0.00 0.00 0.00 0.00 0.00 0.00 0.00 0.00 0.00 0.00 0.00 0.00 0.00 0.00 0.00 0.00 0.00 0.00 0.00 0.00 0.00 0.00 0.00 0.00

GFSNW_prec_precacc6_162.txt.gz
Total_Precipitation_Accumulation
0.06 0.04 0.03 0.06 0.08 0.05 0.10 0.08 0.05 0.01 0.05 0.20 0.27 0.24 0.08 0.06 0.00 0.00 0.01 0.01 0.02 0.01 0.00 0.00 0.00 0.00 0.00 0.00 0.00 0.00 0.00 0.00 0.00 0.00 0.00 0.00 0.00 0.00 0.00 0.00 0.00 0.00 0.00 0.00
0.06 0.07 0.05 0.04 0.11 0.17 0.07 0.08 0.01 0.03 0.11 0.12 0.11 0.03 0.03 0.02 0.00 0.02 0.07 0.05 0.02 0.02 0.02 0.03 0.00 0.00 0.00 0.00 0.00 0.00 0.00 0.00 0.01 0.00 0.00 0.00 0.00 0.00 0.00 0.00 0.00 0.00 0.00 0.00
0.06 0.06 0.07 0.04 0.08 0.24 0.36 0.11 0.06 0.07 0.21 0.09 0.07 0.01 0.01 0.03 0.00 0.00 0.09 0.32 0.12 0.05 0.06 0.06 0.04 0.00 0.00 0.00 0.00 0.00 0.00 0.00 0.00 0.00 0.00 0.00 0.00 0.00 0.00 0.00 0.00 0.00 0.00 0.00
0.07 0.07 0.08 0.07 0.06 0.12 0.32 0.50 0.17 0.02 0.13 0.13 0.01 0.03 0.01 0.01 0.01 0.01 0.00 0.03 0.21 0.31 0.28 0.12 0.10 0.02 0.00 0.00 0.00 0.00 0.00 0.01 0.00 0.00 0.00 0.00 0.00 0.00 0.00 0.00 0.00 0.00 0.00 0.00
0.09 0.08 0.07 0.07 0.06 0.17 0.33 0.37 0.16 0.05 0.01 0.00 0.00 0.00 0.02 0.01 0.00 0.00 0.01 0.01 0.00 0.03 0.31 0.37 0.20 0.08 0.03 0.01 0.00 0.00 0.00 0.02 0.01 0.01 0.00 0.00 0.00 0.00 0.00 0.00 0.00 0.00 0.00 0.00
0.04 0.05 0.06 0.08 0.08 0.19 0.80 0.33 0.06 0.04 0.03 0.00 0.01 0.00 0.00 0.00 0.00 0.00 0.00 0.02 0.04 0.04 0.01 0.01 0.06 0.11 0.09 0.05 0.01 0.01 0.01 0.02 0.02 0.02 0.01 0.00 0.00 0.00 0.00 0.00 0.00 0.00 0.00 0.00
0.05 0.05 0.05 0.08 0.08 0.09 0.31 0.39 0.12 0.13 0.09 0.02 0.01 0.00 0.00 0.00 0.00 0.00 0.01 0.01 0.00 0.02 0.01 0.01 0.01 0.05 0.09 0.08 0.04 0.01 0.00 0.00 0.01 0.01 0.01 0.01 0.00 0.00 0.00 0.00 0.00 0.00 0.00 0.00
0.05 0.05 0.05 0.07 0.07 0.10 0.04 0.16 0.39 0.24 0.13 0.06 0.01 0.00 0.00 0.00 0.00 0.02 0.04 0.07 0.06 0.01 0.03 0.08 0.07 0.07 0.12 0.10 0.04 0.01 0.01 0.01 0.02 0.02 0.01 0.00 0.00 0.00 0.00 0.00 0.00 0.00 0.00 0.00
0.04 0.06 0.05 0.07 0.07 0.10 0.07 0.07 0.10 0.35 0.25 0.14 0.09 0.04 0.00 0.00 0.00 0.02 0.02 0.04 0.13 0.08 0.08 0.09 0.10 0.07 0.04 0.02 0.01 0.01 0.01 0.02 0.02 0.01 0.00 0.00 0.00 0.00 0.00 0.00 0.00 0.00 0.00 0.00
0.04 0.06 0.06 0.05 0.06 0.12 0.16 0.12 0.05 0.11 0.25 0.06 0.08 0.17 0.11 0.01 0.00 0.01 0.02 0.02 0.07 0.16 0.25 0.25 0.12 0.04 0.01 0.01 0.00 0.00 0.00 0.00 0.00 0.00 0.01 0.00 0.00 0.00 0.00 0.00 0.00 0.00 0.00 0.00
0.04 0.07 0.06 0.05 0.06 0.11 0.24 0.14 0.07 0.06 0.06 0.05 0.20 0.23 0.19 0.15 0.08 0.02 0.02 0.09 0.11 0.21 0.22 0.14 0.11 0.05 0.01 0.00 0.00 0.00 0.00 0.00 0.00 0.00 0.02 0.00 0.00 0.00 0.00 0.00 0.00 0.00 0.00 0.00
0.00 0.02 0.04 0.04 0.05 0.10 0.25 0.20 0.06 0.10 0.07 0.03 0.05 0.13 0.17 0.23 0.20 0.18 0.10 0.03 0.02 0.02 0.04 0.02 0.00 0.01 0.01 0.01 0.00 0.00 0.00 0.00 0.00 0.00 0.00 0.00 0.00 0.00 0.00 0.00 0.00 0.00 0.00 0.00
0.02 0.00 0.00 0.02 0.02 0.05 0.16 0.19 0.11 0.10 0.13 0.08 0.04 0.08 0.11 0.11 0.11 0.17 0.32 0.12 0.02 0.00 0.01 0.01 0.01 0.00 0.00 0.00 0.00 0.00 0.00 0.00 0.00 0.00 0.00 0.00 0.00 0.00 0.00 0.00 0.00 0.00 0.00 0.00
0.03 0.03 0.00 0.00 0.00 0.02 0.08 0.15 0.17 0.10 0.07 0.05 0.05 0.14 0.23 0.16 0.15 0.10 0.15 0.11 0.11 0.03 0.01 0.01 0.01 0.00 0.00 0.00 0.00 0.00 0.00 0.00 0.00 0.00 0.00 0.00 0.00 0.00 0.00 0.00 0.00 0.00 0.00 0.00
0.03 0.03 0.02 0.00 0.00 0.03 0.08 0.09 0.13 0.15 0.11 0.07 0.09 0.21 0.25 0.31 0.35 0.15 0.08 0.11 0.25 0.19 0.04 0.01 0.00 0.00 0.00 0.00 0.00 0.00 0.00 0.00 0.00 0.00 0.00 0.00 0.00 0.00 0.00 0.00 0.00 0.00 0.00 0.00
0.04 0.02 0.03 0.02 0.01 0.05 0.16 0.26 0.06 0.10 0.19 0.15 0.16 0.17 0.36 0.44 0.42 0.25 0.11 0.16 0.18 0.23 0.14 0.03 0.00 0.00 0.00 0.00 0.00 0.00 0.00 0.00 0.00 0.00 0.00 0.00 0.00 0.00 0.00 0.00 0.00 0.00 0.00 0.00
0.06 0.03 0.03 0.02 0.03 0.04 0.14 0.16 0.02 0.01 0.10 0.26 0.21 0.23 0.48 0.41 0.37 0.34 0.16 0.15 0.09 0.06 0.07 0.02 0.01 0.00 0.00 0.00 0.00 0.00 0.00 0.00 0.00 0.00 0.00 0.00 0.00 0.00 0.00 0.00 0.00 0.00 0.00 0.00
0.06 0.06 0.04 0.04 0.09 0.07 0.04 0.09 0.06 0.01 0.11 0.14 0.23 0.26 0.47 0.33 0.29 0.25 0.09 0.06 0.02 0.00 0.00 0.00 0.00 0.00 0.00 0.00 0.00 0.00 0.00 0.00 0.00 0.00 0.00 0.00 0.00 0.00 0.00 0.00 0.00 0.00 0.00 0.00
0.08 0.10 0.08 0.16 0.14 0.08 0.02 0.15 0.13 0.01 0.10 0.14 0.17 0.18 0.27 0.15 0.07 0.04 0.02 0.00 0.00 0.00 0.00 0.00 0.00 0.00 0.00 0.00 0.00 0.00 0.00 0.00 0.00 0.00 0.00 0.00 0.00 0.00 0.00 0.00 0.00 0.00 0.00 0.00
0.07 0.13 0.16 0.17 0.07 0.05 0.16 0.31 0.28 0.10 0.02 0.03 0.08 0.12 0.08 0.03 0.01 0.00 0.00 0.00 0.00 0.00 0.00 0.00 0.00 0.00 0.00 0.00 0.00 0.00 0.00 0.00 0.00 0.00 0.00 0.00 0.00 0.00 0.00 0.00 0.00 0.00 0.00 0.00
0.07 0.08 0.16 0.06 0.06 0.08 0.29 0.28 0.20 0.08 0.00 0.00 0.01 0.04 0.01 0.00 0.00 0.00 0.00 0.00 0.00 0.00 0.00 0.00 0.00 0.00 0.00 0.00 0.00 0.00 0.00 0.00 0.00 0.00 0.00 0.00 0.00 0.00 0.00 0.00 0.00 0.00 0.00 0.00
0.01 0.10 0.10 0.04 0.11 0.10 0.15 0.09 0.03 0.00 0.00 0.00 0.00 0.00 0.00 0.00 0.00 0.00 0.00 0.00 0.00 0.00 0.00 0.00 0.00 0.00 0.00 0.00 0.00 0.00 0.00 0.00 0.00 0.00 0.00 0.00 0.00 0.00 0.00 0.00 0.00 0.00 0.00 0.00
0.05 0.02 0.02 0.07 0.06 0.01 0.02 0.01 0.00 0.00 0.00 0.00 0.00 0.00 0.00 0.00 0.00 0.00 0.00 0.00 0.00 0.00 0.00 0.00 0.00 0.00 0.00 0.00 0.00 0.00 0.00 0.00 0.00 0.00 0.00 0.00 0.00 0.00 0.00 0.00 0.00 0.00 0.00 0.00
0.01 0.00 0.01 0.00 0.00 0.00 0.00 0.00 0.00 0.00 0.00 0.00 0.00 0.00 0.00 0.00 0.00 0.00 0.00 0.00 0.00 0.00 0.00 0.00 0.00 0.00 0.00 0.00 0.00 0.00 0.00 0.00 0.00 0.00 0.00 0.00 0.00 0.00 0.00 0.00 0.00 0.00 0.00 0.00
0.00 0.00 0.00 0.00 0.00 0.00 0.00 0.00 0.00 0.00 0.00 0.00 0.00 0.00 0.00 0.00 0.00 0.00 0.00 0.00 0.00 0.00 0.00 0.00 0.00 0.00 0.00 0.00 0.00 0.00 0.00 0.00 0.00 0.00 0.00 0.00 0.00 0.00 0.00 0.00 0.00 0.00 0.00 0.00
0.00 0.00 0.01 0.01 0.00 0.00 0.00 0.00 0.00 0.00 0.00 0.00 0.00 0.00 0.00 0.00 0.00 0.00 0.00 0.00 0.00 0.00 0.00 0.00 0.00 0.00 0.00 0.00 0.00 0.00 0.00 0.00 0.00 0.00 0.00 0.00 0.00 0.00 0.00 0.00 0.00 0.00 0.00 0.00
0.00 0.03 0.02 0.01 0.00 0.00 0.00 0.00 0.00 0.00 0.00 0.00 0.00 0.00 0.00 0.00 0.00 0.00 0.00 0.00 0.00 0.00 0.00 0.00 0.00 0.00 0.00 0.00 0.00 0.00 0.00 0.00 0.00 0.00 0.00 0.00 0.00 0.00 0.00 0.00 0.00 0.00 0.00 0.00

GFSNW_prec_precacc6_165.txt.gz
Total_Precipitation_Accumulation
0.02 0.01 0.02 0.04 0.05 0.05 0.14 0.24 0.18 0.01 0.05 0.09 0.14 0.19 0.07 0.01 0.00 0.00 0.00 0.01 0.01 0.01 0.00 0.00 0.00 0.00 0.00 0.00 0.00 0.00 0.00 0.00 0.01 0.00 0.00 0.00 0.00 0.00 0.00 0.00 0.00 0.00 0.00 0.00
0.04 0.03 0.02 0.02 0.08 0.17 0.10 0.32 0.20 0.05 0.14 0.08 0.05 0.03 0.03 0.02 0.00 0.01 0.03 0.05 0.02 0.02 0.02 0.06 0.00 0.00 0.00 0.00 0.00 0.00 0.00 0.02 0.04 0.01 0.00 0.00 0.00 0.00 0.00 0.00 0.00 0.00 0.00 0.00
0.05 0.06 0.05 0.02 0.04 0.25 0.47 0.25 0.19 0.13 0.16 0.09 0.07 0.02 0.02 0.05 0.01 0.00 0.03 0.15 0.08 0.06 0.06 0.05 0.04 0.00 0.00 0.00 0.00 0.00 0.00 0.02 0.03 0.01 0.00 0.00 0.00 0.00 0.00 0.00 0.01 0.00 0.00 0.00
0.07 0.06 0.08 0.06 0.04 0.10 0.37 0.83 0.34 0.06 0.11 0.10 0.03 0.05 0.02 0.01 0.00 0.00 0.01 0.03 0.07 0.15 0.25 0.13 0.08 0.06 0.03 0.01 0.00 0.00 0.02 0.06 0.01 0.00 0.00 0.00 0.00 0.00 0.00 0.00 0.00 0.00 0.00 0.00
0.10 0.12 0.08 0.10 0.10 0.16 0.36 0.53 0.38 0.18 0.02 0.00 0.00 0.02 0.06 0.02 0.00 0.00 0.00 0.02 0.00 0.01 0.14 0.30 0.24 0.17 0.14 0.10 0.05 0.04 0.05 0.11 0.05 0.04 0.01 0.00 0.00 0.00 0.00 0.00 0.00 0.00 0.00 0.00
0.05 0.11 0.17 0.11 0.17 0.31 0.66 0.52 0.16 0.15 0.11 0.02 0.01 0.02 0.01 0.01 0.00 0.01 0.00 0.00 0.01 0.03 0.01 0.01 0.03 0.07 0.13 0.11 0.05 0.06 0.07 0.06 0.04 0.04 0.01 0.01 0.03 0.00 0.00 0.00 0.00 0.00 0.00 0.00
0.06 0.06 0.12 0.18 0.16 0.27 0.36 0.35 0.24 0.14 0.10 0.06 0.01 0.00 0.00 0.00 0.00 0.01 0.00 0.02 0.01 0.00 0.00 0.01 0.02 0.06 0.12 0.11 0.06 0.03 0.02 0.01 0.06 0.08 0.03 0.11 0.03 0.00 0.00 0.00 0.00 0.00 0.00 0.00
0.06 0.05 0.06 0.10 0.15 0.15 0.07 0.10 0.40 0.39 0.15 0.01 0.00 0.00 0.00 0.00 0.00 0.00 0.00 0.01 0.01 0.01 0.01 0.03 0.05 0.05 0.10 0.12 0.06 0.03 0.03 0.02 0.04 0.07 0.05 0.02 0.00 0.00 0.00 0.00 0.00 0.00 0.00 0.00
0.04 0.06 0.05 0.07 0.07 0.10 0.06 0.02 0.06 0.45 0.42 0.09 0.03 0.04 0.01 0.01 0.01 0.01 0.00 0.01 0.07 0.04 0.03 0.06 0.08 0.05 0.02 0.02 0.02 0.01 0.05 0.10 0.11 0.10 0.04 0.01 0.00 0.00 0.00 0.00 0.00 0.00 0.00 0.00
0.02 0.04 0.06 0.06 0.06 0.09 0.08 0.03 0.03 0.11 0.35 0.09 0.08 0.11 0.09 0.03 0.02 0.02 0.01 0.01 0.05 0.11 0.21 0.18 0.09 0.03 0.01 0.01 0.00 0.00 0.03 0.10 0.16 0.08 0.04 0.01 0.00 0.00 0.00 0.00 0.00 0.00 0.00 0.00
0.04 0.06 0.07 0.06 0.08 0.11 0.09 0.03 0.03 0.05 0.09 0.01 0.02 0.04 0.07 0.12 0.13 0.10 0.07 0.11 0.11 0.14 0.18 0.19 0.16 0.07 0.01 0.00 0.00 0.00 0.00 0.01 0.04 0.06 0.10 0.02 0.00 0.00 0.00 0.00 0.00 0.00 0.00 0.00
0.00 0.03 0.07 0.07 0.09 0.11 0.11 0.03 0.02 0.06 0.09 0.02 0.00 0.00 0.03 0.05 0.11 0.17 0.18 0.18 0.04 0.03 0.05 0.05 0.02 0.05 0.05 0.02 0.00 0.00 0.00 0.01 0.00 0.01 0.01 0.00 0.00 0.00 0.00 0.00 0.00 0.00 0.00 0.00
0.03 0.00 0.01 0.04 0.06 0.08 0.07 0.02 0.04 0.09 0.16 0.07 0.01 0.00 0.00 0.01 0.04 0.10 0.31 0.15 0.04 0.04 0.04 0.04 0.04 0.02 0.00 0.02 0.02 0.00 0.00 0.00 0.01 0.01 0.00 0.00 0.00 0.00 0.00 0.00 0.00 0.00 0.00 0.00
0.02 0.01 0.00 0.01 0.04 0.06 0.05 0.04 0.11 0.11 0.13 0.05 0.00 0.00 0.00 0.00 0.02 0.05 0.11 0.10 0.10 0.08 0.06 0.08 0.05 0.01 0.00 0.00 0.00 0.00 0.00 0.00 0.00 0.00 0.00 0.00 0.00 0.00 0.00 0.00 0.00 0.00 0.00 0.00
0.01 0.02 0.02 0.00 0.01 0.04 0.05 0.05 0.10 0.13 0.19 0.15 0.02 0.00 0.01 0.04 0.08 0.11 0.08 0.11 0.26 0.36 0.19 0.10 0.04 0.01 0.00 0.00 0.00 0.00 0.00 0.00 0.00 0.00 0.00 0.00 0.00 0.00 0.00 0.00 0.00 0.00 0.00 0.00
0.01 0.02 0.03 0.04 0.01 0.04 0.09 0.18 0.04 0.09 0.20 0.11 0.02 0.02 0.10 0.22 0.25 0.18 0.10 0.17 0.27 0.49 0.37 0.14 0.02 0.00 0.00 0.01 0.00 0.00 0.00 0.00 0.00 0.00 0.00 0.00 0.00 0.00 0.00 0.00 0.00 0.00 0.00 0.00
0.05 0.03 0.06 0.05 0.05 0.02 0.10 0.15 0.09 0.05 0.16 0.40 0.12 0.07 0.26 0.32 0.35 0.34 0.18 0.23 0.22 0.29 0.39 0.22 0.05 0.00 0.00 0.00 0.00 0.00 0.00 0.00 0.00 0.00 0.00 0.00 0.00 0.00 0.00 0.00 0.00 0.00 0.00 0.00
0.06 0.06 0.07 0.06 0.08 0.07 0.04 0.10 0.12 0.08 0.07 0.14 0.16 0.15 0.32 0.32 0.35 0.37 0.25 0.27 0.21 0.19 0.19 0.15 0.09 0.07 0.03 0.01 0.00 0.00 0.00 0.00 0.00 0.00 0.00 0.00 0.00 0.00 0.00 0.00 0.00 0.00 0.00 0.00
0.09 0.13 0.16 0.14 0.11 0.07 0.02 0.11 0.21 0.11 0.09 0.14 0.15 0.17 0.33 0.36 0.28 0.24 0.19 0.11 0.08 0.05 0.03 0.02 0.03 0.06 0.03 0.00 0.00 0.00 0.00 0.00 0.00 0.00 0.00 0.00 0.00 0.00 0.00 0.00 0.00 0.00 0.00 0.00
0.18 0.38 0.26 0.08 0.03 0.03 0.05 0.25 0.61 0.28 0.08 0.05 0.12 0.21 0.23 0.27 0.15 0.08 0.04 0.01 0.01 0.01 0.00 0.00 0.00 0.00 0.00 0.00 0.00 0.00 0.00 0.00 0.00 0.00 0.00 0.00 0.00 0.00 0.00 0.00 0.00 0.00 0.00 0.00
0.28 0.23 0.09 0.05 0.04 0.06 0.05 0.20 0.30 0.22 0.04 0.00 0.02 0.14 0.16 0.11 0.04 0.01 0.01 0.00 0.00 0.00 0.00 0.00 0.00 0.00 0.00 0.00 0.00 0.00 0.00 0.00 0.00 0.00 0.00 0.00 0.00 0.00 0.00 0.00 0.00 0.00 0.00 0.00
0.03 0.05 0.09 0.05 0.10 0.05 0.08 0.09 0.05 0.03 0.00 0.00 0.00 0.04 0.06 0.01 0.00 0.00 0.00 0.00 0.00 0.00 0.00 0.00 0.00 0.00 0.00 0.00 0.00 0.00 0.00 0.00 0.00 0.00 0.00 0.00 0.00 0.00 0.00 0.00 0.00 0.00 0.00 0.00
0.05 0.03 0.03 0.07 0.06 0.02 0.02 0.01 0.01 0.00 0.00 0.00 0.00 0.00 0.00 0.00 0.00 0.00 0.00 0.00 0.00 0.00 0.00 0.00 0.00 0.00 0.00 0.00 0.00 0.00 0.00 0.00 0.00 0.00 0.00 0.00 0.00 0.00 0.00 0.00 0.00 0.00 0.00 0.00
0.04 0.03 0.01 0.03 0.00 0.00 0.00 0.00 0.00 0.00 0.00 0.00 0.00 0.00 0.00 0.00 0.00 0.00 0.00 0.00 0.00 0.00 0.00 0.00 0.00 0.00 0.00 0.00 0.00 0.00 0.00 0.00 0.00 0.00 0.00 0.00 0.00 0.00 0.00 0.00 0.00 0.00 0.00 0.00
0.01 0.01 0.00 0.00 0.00 0.00 0.00 0.00 0.00 0.00 0.00 0.00 0.00 0.00 0.00 0.00 0.00 0.00 0.00 0.00 0.00 0.00 0.00 0.00 0.00 0.00 0.00 0.00 0.00 0.00 0.00 0.00 0.00 0.00 0.00 0.00 0.00 0.00 0.00 0.00 0.00 0.00 0.00 0.00
0.00 0.00 0.00 0.00 0.00 0.00 0.00 0.00 0.00 0.00 0.00 0.00 0.00 0.00 0.00 0.00 0.00 0.00 0.00 0.00 0.00 0.00 0.00 0.00 0.00 0.00 0.00 0.00 0.00 0.00 0.00 0.00 0.00 0.00 0.00 0.00 0.00 0.00 0.00 0.00 0.00 0.00 0.00 0.00
0.00 0.01 0.01 0.00 0.00 0.00 0.00 0.00 0.00 0.00 0.00 0.00 0.00 0.00 0.00 0.00 0.00 0.00 0.00 0.00 0.00 0.00 0.00 0.00 0.00 0.00 0.00 0.00 0.00 0.00 0.00 0.00 0.00 0.00 0.00 0.00 0.00 0.00 0.00 0.00 0.00 0.00 0.00 0.00

GFSNW_prec_precacc6_168.txt.gz
Total_Precipitation_Accumulation
0.00 0.00 0.00 0.00 0.00 0.03 0.15 0.24 0.31 0.04 0.07 0.08 0.05 0.10 0.06 0.01 0.00 0.00 0.00 0.00 0.00 0.00 0.00 0.00 0.00 0.00 0.00 0.00 0.00 0.00 0.00 0.00 0.01 0.00 0.00 0.00 0.00 0.00 0.00 0.00 0.00 0.00 0.00 0.00
0.00 0.00 0.00 0.00 0.01 0.05 0.10 0.30 0.25 0.13 0.19 0.08 0.03 0.01 0.01 0.02 0.00 0.00 0.00 0.01 0.01 0.00 0.01 0.04 0.00 0.00 0.00 0.00 0.00 0.00 0.00 0.01 0.04 0.03 0.01 0.00 0.00 0.00 0.00 0.00 0.00 0.02 0.01 0.00
0.00 0.01 0.01 0.00 0.01 0.08 0.20 0.19 0.23 0.19 0.32 0.28 0.04 0.00 0.01 0.03 0.01 0.01 0.03 0.03 0.03 0.03 0.02 0.03 0.02 0.01 0.01 0.00 0.00 0.00 0.00 0.02 0.03 0.02 0.00 0.00 0.00 0.00 0.01 0.02 0.05 0.02 0.00 0.00
0.01 0.02 0.02 0.01 0.02 0.09 0.20 0.47 0.30 0.08 0.14 0.23 0.14 0.03 0.01 0.00 0.00 0.01 0.03 0.07 0.04 0.06 0.12 0.06 0.03 0.06 0.05 0.02 0.01 0.01 0.03 0.10 0.02 0.01 0.00 0.00 0.01 0.00 0.00 0.00 0.01 0.00 0.01 0.00
0.03 0.05 0.05 0.08 0.08 0.16 0.31 0.38 0.32 0.21 0.05 0.01 0.07 0.12 0.09 0.02 0.00 0.01 0.02 0.06 0.02 0.03 0.05 0.11 0.15 0.18 0.22 0.17 0.11 0.07 0.11 0.19 0.07 0.05 0.01 0.00 0.01 0.01 0.00 0.00 0.00 0.00 0.00 0.00
0.02 0.08 0.15 0.10 0.16 0.31 0.48 0.38 0.23 0.18 0.16 0.05 0.04 0.06 0.04 0.02 0.01 0.01 0.01 0.03 0.05 0.06 0.03 0.05 0.03 0.06 0.10 0.14 0.12 0.12 0.13 0.12 0.16 0.13 0.01 0.04 0.11 0.02 0.00 0.00 0.00 0.00 0.00 0.00
0.01 0.03 0.10 0.18 0.16 0.33 0.37 0.28 0.19 0.24 0.23 0.12 0.04 0.00 0.00 0.00 0.01 0.02 0.03 0.07 0.06 0.03 0.03 0.03 0.03 0.05 0.05 0.05 0.05 0.07 0.07 0.04 0.14 0.13 0.05 0.22 0.06 0.00 0.00 0.00 0.00 0.00 0.00 0.00
0.03 0.03 0.06 0.11 0.20 0.26 0.32 0.21 0.37 0.37 0.20 0.06 0.02 0.01 0.01 0.02 0.02 0.01 0.01 0.02 0.02 0.05 0.05 0.05 0.03 0.02 0.02 0.04 0.05 0.03 0.04 0.06 0.08 0.11 0.09 0.04 0.00 0.00 0.00 0.00 0.00 0.00 0.00 0.00
0.06 0.05 0.06 0.05 0.06 0.19 0.30 0.22 0.17 0.39 0.40 0.16 0.05 0.02 0.02 0.02 0.02 0.01 0.00 0.01 0.04 0.06 0.08 0.09 0.06 0.01 0.00 0.00 0.00 0.01 0.04 0.09 0.15 0.16 0.10 0.03 0.00 0.00 0.00 0.00 0.00 0.00 0.00 0.00
0.02 0.03 0.06 0.07 0.05 0.08 0.15 0.16 0.11 0.13 0.20 0.07 0.08 0.10 0.05 0.04 0.05 0.03 0.01 0.01 0.03 0.09 0.14 0.11 0.05 0.01 0.00 0.00 0.00 0.01 0.05 0.13 0.22 0.12 0.07 0.01 0.00 0.00 0.00 0.00 0.00 0.00 0.00 0.00
0.01 0.02 0.05 0.06 0.09 0.10 0.08 0.07 0.06 0.07 0.08 0.02 0.01 0.03 0.06 0.06 0.09 0.11 0.10 0.13 0.08 0.04 0.09 0.14 0.11 0.05 0.01 0.01 0.00 0.00 0.01 0.02 0.05 0.11 0.12 0.03 0.00 0.00 0.00 0.00 0.00 0.00 0.00 0.00
0.00 0.01 0.03 0.04 0.09 0.10 0.08 0.04 0.05 0.07 0.08 0.02 0.01 0.01 0.00 0.01 0.02 0.05 0.11 0.26 0.17 0.10 0.05 0.04 0.03 0.11 0.10 0.03 0.01 0.00 0.00 0.01 0.01 0.02 0.01 0.00 0.00 0.00 0.00 0.00 0.00 0.00 0.00 0.00
0.03 0.00 0.01 0.03 0.05 0.08 0.06 0.02 0.05 0.08 0.11 0.06 0.01 0.00 0.00 0.00 0.01 0.01 0.06 0.06 0.12 0.24 0.21 0.11 0.07 0.04 0.02 0.05 0.03 0.01 0.01 0.00 0.01 0.01 0.00 0.00 0.00 0.00 0.00 0.00 0.00 0.00 0.00 0.00
0.02 0.00 0.00 0.01 0.04 0.08 0.05 0.02 0.02 0.04 0.11 0.07 0.00 0.00 0.00 0.00 0.00 0.00 0.00 0.00 0.01 0.09 0.22 0.26 0.12 0.04 0.01 0.00 0.01 0.01 0.01 0.00 0.00 0.00 0.00 0.00 0.00 0.00 0.00 0.00 0.00 0.00 0.00 0.00
0.01 0.00 0.00 0.00 0.02 0.09 0.06 0.02 0.01 0.01 0.11 0.15 0.05 0.00 0.00 0.00 0.00 0.00 0.00 0.01 0.02 0.19 0.17 0.11 0.06 0.02 0.01 0.00 0.00 0.00 0.00 0.00 0.00 0.01 0.00 0.00 0.00 0.00 0.00 0.00 0.00 0.00 0.00 0.00
0.00 0.01 0.03 0.02 0.02 0.05 0.05 0.03 0.00 0.00 0.06 0.08 0.02 0.00 0.00 0.00 0.00 0.00 0.01 0.03 0.11 0.28 0.24 0.12 0.03 0.00 0.01 0.02 0.01 0.00 0.00 0.00 0.01 0.02 0.01 0.00 0.00 0.00 0.00 0.00 0.00 0.00 0.00 0.00
0.00 0.01 0.06 0.07 0.07 0.03 0.01 0.02 0.11 0.07 0.12 0.31 0.11 0.02 0.00 0.00 0.01 0.01 0.03 0.09 0.17 0.26 0.34 0.22 0.04 0.00 0.01 0.01 0.00 0.00 0.00 0.00 0.01 0.02 0.00 0.00 0.00 0.00 0.00 0.00 0.00 0.00 0.00 0.00
0.01 0.01 0.07 0.09 0.10 0.07 0.02 0.04 0.17 0.24 0.17 0.21 0.20 0.02 0.01 0.04 0.08 0.14 0.17 0.23 0.25 0.28 0.24 0.18 0.11 0.09 0.05 0.02 0.00 0.00 0.00 0.00 0.00 0.00 0.00 0.00 0.00 0.00 0.00 0.00 0.00 0.00 0.00 0.00
0.02 0.06 0.17 0.17 0.11 0.05 0.01 0.02 0.13 0.13 0.13 0.17 0.03 0.02 0.09 0.24 0.29 0.29 0.28 0.23 0.23 0.16 0.10 0.06 0.10 0.16 0.10 0.01 0.00 0.00 0.00 0.00 0.00 0.00 0.00 0.00 0.00 0.00 0.00 0.00 0.00 0.00 0.00 0.00
0.16 0.41 0.44 0.16 0.02 0.02 0.02 0.19 0.50 0.27 0.12 0.07 0.07 0.09 0.16 0.31 0.30 0.24 0.16 0.09 0.08 0.07 0.02 0.03 0.07 0.04 0.01 0.00 0.00 0.00 0.00 0.00 0.00 0.00 0.00 0.00 0.00 0.00 0.00 0.00 0.00 0.00 0.00 0.00
0.35 0.37 0.12 0.02 0.02 0.07 0.07 0.21 0.37 0.28 0.14 0.01 0.01 0.10 0.17 0.21 0.14 0.08 0.05 0.04 0.02 0.03 0.01 0.04 0.02 0.00 0.00 0.00 0.00 0.00 0.00 0.00 0.00 0.00 0.00 0.00 0.00 0.00 0.00 0.00 0.00 0.00 0.00 0.00
0.06 0.05 0.06 0.04 0.04 0.06 0.10 0.03 0.05 0.05 0.02 0.00 0.01 0.08 0.14 0.09 0.10 0.09 0.02 0.01 0.00 0.00 0.00 0.02 0.00 0.00 0.00 0.00 0.00 0.00 0.00 0.00 0.00 0.00 0.00 0.00 0.00 0.00 0.00 0.00 0.00 0.00 0.00 0.00
0.04 0.07 0.04 0.02 0.02 0.04 0.01 0.00 0.00 0.00 0.00 0.00 0.00 0.04 0.03 0.01 0.03 0.03 0.01 0.00 0.00 0.00 0.00 0.00 0.00 0.00 0.00 0.00 0.00 0.00 0.00 0.00 0.00 0.00 0.00 0.00 0.00 0.00 0.00 0.00 0.00 0.00 0.00 0.00
0.06 0.05 0.01 0.03 0.01 0.00 0.00 0.00 0.00 0.00 0.00 0.00 0.00 0.00 0.00 0.00 0.00 0.00 0.00 0.00 0.00 0.00 0.00 0.00 0.00 0.00 0.00 0.00 0.00 0.00 0.00 0.00 0.00 0.00 0.00 0.00 0.00 0.00 0.00 0.00 0.00 0.00 0.00 0.00
0.02 0.02 0.01 0.00 0.00 0.00 0.00 0.00 0.00 0.00 0.00 0.00 0.00 0.00 0.00 0.00 0.00 0.00 0.00 0.00 0.00 0.00 0.00 0.00 0.00 0.00 0.00 0.00 0.00 0.00 0.00 0.00 0.00 0.00 0.00 0.00 0.00 0.00 0.00 0.00 0.00 0.00 0.00 0.00
0.01 0.00 0.00 0.00 0.00 0.00 0.00 0.00 0.00 0.00 0.00 0.00 0.00 0.00 0.00 0.00 0.00 0.00 0.00 0.00 0.00 0.00 0.00 0.00 0.00 0.00 0.00 0.00 0.00 0.00 0.00 0.00 0.00 0.00 0.00 0.00 0.00 0.00 0.00 0.00 0.00 0.00 0.00 0.00
0.00 0.00 0.00 0.00 0.00 0.00 0.00 0.00 0.00 0.00 0.00 0.00 0.00 0.00 0.00 0.00 0.00 0.00 0.00 0.00 0.00 0.00 0.00 0.00 0.00 0.00 0.00 0.00 0.00 0.00 0.00 0.00 0.00 0.00 0.00 0.00 0.00 0.00 0.00 0.00 0.00 0.00 0.00 0.00

GFSNW_prec_precacc6_174.txt.gz
Total_Precipitation_Accumulation
0.00 0.00 0.00 0.00 0.00 0.00 0.03 0.15 0.06 0.03 0.21 0.19 0.07 0.03 0.00 0.00 0.00 0.00 0.00 0.01 0.01 0.00 0.01 0.02 0.04 0.06 0.05 0.04 0.02 0.00 0.00 0.02 0.00 0.00 0.00 0.00 0.00 0.00 0.00 0.00 0.00 0.00 0.00 0.00
0.00 0.00 0.00 0.00 0.00 0.00 0.10 0.11 0.02 0.05 0.16 0.23 0.11 0.02 0.00 0.00 0.00 0.00 0.00 0.01 0.00 0.00 0.00 0.02 0.03 0.04 0.01 0.06 0.15 0.11 0.04 0.16 0.11 0.02 0.00 0.00 0.00 0.00 0.00 0.00 0.00 0.02 0.01 0.00
0.00 0.00 0.00 0.00 0.00 0.00 0.10 0.08 0.03 0.02 0.10 0.11 0.17 0.13 0.06 0.01 0.00 0.00 0.01 0.02 0.02 0.02 0.02 0.02 0.02 0.01 0.00 0.01 0.10 0.08 0.09 0.19 0.15 0.08 0.00 0.00 0.05 0.04 0.00 0.00 0.03 0.01 0.00 0.00
0.00 0.00 0.00 0.00 0.00 0.03 0.09 0.07 0.02 0.02 0.04 0.01 0.04 0.08 0.11 0.07 0.04 0.00 0.02 0.05 0.05 0.04 0.06 0.03 0.03 0.01 0.03 0.03 0.03 0.05 0.08 0.16 0.04 0.02 0.00 0.00 0.01 0.03 0.01 0.01 0.02 0.00 0.00 0.00
0.00 0.00 0.00 0.00 0.01 0.07 0.12 0.04 0.01 0.02 0.01 0.00 0.05 0.10 0.13 0.07 0.03 0.01 0.01 0.05 0.03 0.05 0.10 0.07 0.05 0.07 0.07 0.07 0.08 0.12 0.15 0.19 0.12 0.12 0.01 0.00 0.01 0.01 0.00 0.00 0.00 0.01 0.01 0.00
0.00 0.00 0.00 0.01 0.03 0.07 0.07 0.04 0.03 0.09 0.04 0.01 0.03 0.03 0.06 0.08 0.07 0.07 0.02 0.04 0.08 0.08 0.04 0.05 0.08 0.11 0.12 0.10 0.07 0.10 0.16 0.15 0.14 0.11 0.00 0.03 0.14 0.03 0.00 0.00 0.00 0.00 0.00 0.00
0.00 0.00 0.01 0.02 0.03 0.06 0.05 0.04 0.08 0.13 0.08 0.03 0.02 0.00 0.00 0.01 0.02 0.05 0.03 0.03 0.08 0.07 0.03 0.07 0.06 0.10 0.16 0.23 0.23 0.19 0.20 0.12 0.19 0.16 0.07 0.20 0.05 0.00 0.00 0.00 0.00 0.00 0.00 0.00
0.00 0.01 0.02 0.02 0.04 0.06 0.07 0.06 0.09 0.12 0.08 0.04 0.04 0.03 0.03 0.02 0.01 0.02 0.01 0.01 0.02 0.07 0.16 0.25 0.18 0.07 0.10 0.07 0.11 0.18 0.25 0.25 0.28 0.22 0.15 0.06 0.00 0.00 0.00 0.00 0.00 0.00 0.00 0.00
0.02 0.03 0.04 0.05 0.04 0.05 0.11 0.08 0.11 0.15 0.24 0.14 0.05 0.05 0.04 0.06 0.08 0.07 0.02 0.00 0.01 0.08 0.16 0.16 0.10 0.03 0.04 0.02 0.03 0.04 0.06 0.05 0.10 0.09 0.10 0.07 0.00 0.00 0.00 0.00 0.01 0.00 0.00 0.00
0.03 0.03 0.03 0.06 0.06 0.06 0.10 0.12 0.14 0.24 0.19 0.09 0.13 0.13 0.14 0.09 0.06 0.07 0.05 0.04 0.07 0.10 0.18 0.22 0.13 0.05 0.01 0.01 0.03 0.04 0.09 0.25 0.24 0.09 0.06 0.01 0.00 0.00 0.00 0.00 0.01 0.00 0.00 0.00
0.04 0.02 0.02 0.05 0.07 0.07 0.11 0.10 0.16 0.25 0.23 0.08 0.06 0.08 0.09 0.14 0.23 0.16 0.10 0.12 0.15 0.22 0.18 0.10 0.05 0.06 0.02 0.02 0.00 0.03 0.06 0.08 0.08 0.13 0.14 0.06 0.00 0.00 0.00 0.00 0.00 0.00 0.00 0.00
0.05 0.02 0.01 0.01 0.02 0.04 0.07 0.15 0.12 0.20 0.33 0.14 0.07 0.05 0.02 0.02 0.08 0.25 0.23 0.15 0.13 0.21 0.24 0.15 0.15 0.08 0.04 0.04 0.04 0.02 0.04 0.05 0.03 0.03 0.02 0.00 0.00 0.00 0.00 0.00 0.00 0.00 0.00 0.00
0.06 0.04 0.02 0.01 0.01 0.02 0.03 0.08 0.22 0.30 0.28 0.07 0.01 0.00 0.00 0.00 0.00 0.09 0.22 0.19 0.15 0.13 0.10 0.12 0.11 0.10 0.04 0.08 0.09 0.06 0.05 0.02 0.08 0.09 0.01 0.00 0.00 0.00 0.05 0.07 0.02 0.00 0.00 0.00
0.05 0.03 0.01 0.00 0.00 0.01 0.03 0.07 0.16 0.28 0.27 0.07 0.01 0.00 0.00 0.00 0.00 0.00 0.01 0.05 0.11 0.12 0.05 0.11 0.09 0.09 0.06 0.06 0.04 0.07 0.10 0.11 0.11 0.11 0.06 0.04 0.03 0.00 0.02 0.03 0.02 0.01 0.00 0.00
0.03 0.03 0.01 0.00 0.00 0.04 0.06 0.10 0.10 0.10 0.16 0.11 0.03 0.01 0.00 0.00 0.00 0.00 0.00 0.00 0.02 0.11 0.11 0.06 0.06 0.04 0.04 0.03 0.02 0.02 0.02 0.10 0.14 0.14 0.10 0.07 0.03 0.03 0.02 0.02 0.01 0.01 0.00 0.00
0.02 0.01 0.01 0.00 0.00 0.04 0.15 0.11 0.07 0.08 0.10 0.09 0.02 0.00 0.00 0.00 0.00 0.00 0.00 0.01 0.02 0.09 0.10 0.05 0.01 0.01 0.08 0.06 0.02 0.00 0.00 0.00 0.01 0.02 0.03 0.03 0.02 0.04 0.04 0.07 0.09 0.07 0.02 0.00
0.02 0.01 0.01 0.01 0.01 0.03 0.15 0.15 0.07 0.05 0.09 0.10 0.04 0.03 0.01 0.00 0.03 0.03 0.01 0.02 0.06 0.08 0.07 0.04 0.01 0.02 0.06 0.05 0.01 0.00 0.00 0.00 0.00 0.02 0.05 0.06 0.03 0.02 0.01 0.03 0.04 0.07 0.06 0.01
0.01 0.00 0.02 0.05 0.06 0.05 0.03 0.04 0.02 0.10 0.09 0.10 0.07 0.09 0.09 0.01 0.02 0.05 0.03 0.03 0.08 0.08 0.07 0.04 0.02 0.02 0.07 0.04 0.00 0.00 0.00 0.00 0.00 0.01 0.01 0.02 0.02 0.02 0.03 0.01 0.01 0.01 0.00 0.00
0.00 0.00 0.03 0.07 0.09 0.06 0.03 0.02 0.02 0.05 0.10 0.18 0.09 0.07 0.18 0.09 0.03 0.03 0.03 0.06 0.11 0.09 0.07 0.03 0.04 0.05 0.05 0.00 0.00 0.00 0.00 0.00 0.00 0.00 0.00 0.01 0.01 0.02 0.02 0.01 0.01 0.00 0.00 0.00
0.00 0.02 0.07 0.08 0.03 0.03 0.05 0.05 0.07 0.07 0.04 0.04 0.03 0.05 0.14 0.15 0.05 0.06 0.08 0.10 0.12 0.14 0.05 0.02 0.08 0.02 0.00 0.00 0.00 0.00 0.00 0.00 0.00 0.00 0.00 0.01 0.01 0.01 0.00 0.00 0.00 0.00 0.00 0.00
0.02 0.03 0.08 0.17 0.07 0.10 0.13 0.10 0.06 0.06 0.08 0.03 0.00 0.00 0.03 0.10 0.14 0.13 0.12 0.16 0.14 0.15 0.08 0.09 0.08 0.01 0.00 0.00 0.00 0.00 0.00 0.00 0.00 0.00 0.00 0.00 0.00 0.00 0.00 0.00 0.00 0.00 0.00 0.00
0.01 0.08 0.13 0.14 0.10 0.13 0.12 0.08 0.10 0.14 0.09 0.08 0.03 0.03 0.05 0.06 0.07 0.13 0.12 0.13 0.11 0.10 0.08 0.14 0.05 0.00 0.00 0.00 0.00 0.00 0.00 0.00 0.00 0.00 0.00 0.00 0.00 0.00 0.00 0.00 0.00 0.00 0.00 0.00
0.05 0.17 0.31 0.10 0.05 0.09 0.11 0.09 0.03 0.06 0.09 0.10 0.12 0.18 0.15 0.12 0.12 0.19 0.15 0.13 0.08 0.01 0.03 0.03 0.01 0.00 0.00 0.00 0.00 0.00 0.00 0.00 0.00 0.00 0.00 0.00 0.00 0.00 0.00 0.00 0.00 0.00 0.00 0.00
0.13 0.13 0.17 0.04 0.03 0.01 0.02 0.04 0.08 0.11 0.10 0.08 0.18 0.31 0.16 0.12 0.12 0.09 0.06 0.04 0.01 0.00 0.01 0.01 0.00 0.00 0.00 0.01 0.01 0.00 0.00 0.00 0.00 0.00 0.00 0.00 0.00 0.00 0.00 0.00 0.00 0.00 0.00 0.00
0.15 0.08 0.08 0.02 0.01 0.02 0.05 0.03 0.01 0.00 0.00 0.03 0.16 0.19 0.10 0.13 0.10 0.03 0.03 0.01 0.01 0.01 0.03 0.04 0.00 0.00 0.00 0.01 0.00 0.00 0.00 0.00 0.00 0.00 0.00 0.00 0.00 0.00 0.00 0.00 0.00 0.00 0.00 0.00
0.11 0.04 0.01 0.01 0.01 0.01 0.01 0.01 0.00 0.00 0.01 0.03 0.09 0.15 0.06 0.07 0.05 0.03 0.01 0.00 0.01 0.01 0.00 0.00 0.00 0.00 0.00 0.01 0.00 0.00 0.00 0.00 0.00 0.00 0.00 0.00 0.00 0.00 0.00 0.00 0.00 0.00 0.00 0.00
0.02 0.01 0.01 0.01 0.01 0.01 0.01 0.01 0.01 0.00 0.02 0.04 0.06 0.04 0.04 0.04 0.01 0.01 0.00 0.01 0.01 0.00 0.00 0.00 0.00 0.00 0.00 0.00 0.00 0.00 0.00 0.00 0.00 0.00 0.00 0.00 0.00 0.00 0.00 0.00 0.00 0.00 0.00 0.00

GFSNW_prec_precacc6_180.txt.gz
Total_Precipitation_Accumulation
0.01 0.00 0.00 0.00 0.00 0.01 0.00 0.01 0.01 0.02 0.08 0.05 0.01 0.00 0.00 0.00 0.00 0.00 0.00 0.00 0.00 0.00 0.00 0.00 0.00 0.00 0.01 0.01 0.03 0.02 0.04 0.10 0.06 0.00 0.00 0.00 0.00 0.00 0.00 0.01 0.02 0.00 0.00 0.00
0.02 0.01 0.00 0.00 0.00 0.00 0.01 0.02 0.01 0.02 0.17 0.08 0.04 0.00 0.00 0.00 0.00 0.00 0.00 0.00 0.00 0.00 0.00 0.00 0.00 0.00 0.00 0.00 0.05 0.12 0.15 0.34 0.27 0.05 0.00 0.00 0.01 0.04 0.04 0.02 0.02 0.02 0.04 0.02
0.01 0.00 0.00 0.00 0.00 0.00 0.01 0.02 0.00 0.01 0.05 0.06 0.02 0.03 0.02 0.00 0.00 0.00 0.00 0.00 0.00 0.00 0.00 0.00 0.00 0.00 0.00 0.00 0.02 0.06 0.16 0.25 0.20 0.18 0.06 0.03 0.10 0.08 0.09 0.16 0.15 0.05 0.00 0.00
0.01 0.01 0.01 0.00 0.00 0.00 0.00 0.01 0.00 0.00 0.00 0.00 0.01 0.00 0.00 0.00 0.00 0.00 0.01 0.01 0.01 0.01 0.02 0.00 0.00 0.00 0.00 0.00 0.03 0.10 0.12 0.16 0.04 0.03 0.01 0.03 0.10 0.11 0.09 0.17 0.17 0.20 0.05 0.00
0.02 0.02 0.02 0.01 0.01 0.02 0.00 0.00 0.00 0.00 0.00 0.00 0.01 0.03 0.01 0.00 0.00 0.00 0.00 0.01 0.01 0.02 0.05 0.02 0.01 0.00 0.00 0.00 0.02 0.12 0.18 0.22 0.09 0.07 0.00 0.00 0.02 0.05 0.08 0.04 0.02 0.06 0.07 0.05
0.00 0.00 0.00 0.01 0.01 0.02 0.00 0.00 0.00 0.02 0.01 0.00 0.00 0.00 0.00 0.00 0.00 0.00 0.00 0.01 0.01 0.01 0.01 0.01 0.02 0.01 0.01 0.01 0.01 0.03 0.07 0.10 0.13 0.13 0.01 0.02 0.08 0.02 0.01 0.01 0.00 0.01 0.02 0.02
0.00 0.00 0.00 0.01 0.01 0.01 0.00 0.00 0.02 0.04 0.01 0.00 0.00 0.00 0.00 0.00 0.00 0.00 0.00 0.00 0.03 0.00 0.00 0.02 0.01 0.00 0.01 0.01 0.01 0.04 0.06 0.07 0.14 0.14 0.03 0.12 0.05 0.00 0.00 0.00 0.00 0.00 0.00 0.00
0.03 0.01 0.00 0.00 0.00 0.02 0.00 0.00 0.04 0.06 0.04 0.01 0.00 0.00 0.00 0.00 0.00 0.00 0.00 0.00 0.00 0.00 0.01 0.07 0.11 0.10 0.06 0.02 0.01 0.02 0.03 0.09 0.21 0.21 0.16 0.11 0.02 0.00 0.00 0.00 0.01 0.00 0.00 0.01
0.02 0.02 0.02 0.02 0.01 0.02 0.02 0.01 0.05 0.08 0.08 0.01 0.00 0.00 0.00 0.00 0.00 0.00 0.00 0.00 0.00 0.01 0.06 0.11 0.15 0.12 0.10 0.06 0.03 0.02 0.07 0.06 0.09 0.09 0.13 0.08 0.01 0.00 0.00 0.01 0.07 0.01 0.00 0.00
0.03 0.02 0.02 0.02 0.02 0.02 0.05 0.02 0.04 0.07 0.08 0.01 0.00 0.00 0.00 0.00 0.00 0.00 0.00 0.00 0.00 0.02 0.06 0.09 0.08 0.06 0.01 0.01 0.00 0.01 0.08 0.23 0.41 0.38 0.34 0.22 0.03 0.00 0.00 0.03 0.03 0.00 0.00 0.00
0.04 0.04 0.03 0.02 0.02 0.02 0.08 0.02 0.03 0.05 0.02 0.00 0.00 0.00 0.00 0.00 0.00 0.00 0.00 0.01 0.02 0.05 0.07 0.10 0.06 0.05 0.01 0.01 0.00 0.00 0.00 0.01 0.02 0.09 0.26 0.21 0.03 0.02 0.03 0.01 0.02 0.02 0.02 0.02
0.04 0.04 0.04 0.03 0.02 0.03 0.11 0.03 0.02 0.08 0.09 0.02 0.00 0.00 0.00 0.00 0.00 0.02 0.03 0.03 0.02 0.07 0.09 0.09 0.08 0.12 0.09 0.05 0.03 0.01 0.02 0.02 0.02 0.04 0.02 0.01 0.01 0.02 0.03 0.02 0.02 0.02 0.01 0.01
0.03 0.02 0.02 0.02 0.02 0.04 0.08 0.02 0.06 0.08 0.17 0.07 0.00 0.00 0.00 0.00 0.01 0.05 0.22 0.17 0.17 0.12 0.11 0.21 0.21 0.16 0.09 0.07 0.03 0.02 0.01 0.01 0.05 0.05 0.01 0.00 0.00 0.00 0.01 0.01 0.01 0.02 0.01 0.00
0.01 0.01 0.03 0.04 0.04 0.05 0.07 0.04 0.07 0.09 0.22 0.23 0.02 0.00 0.01 0.02 0.01 0.02 0.06 0.13 0.25 0.40 0.47 0.47 0.29 0.15 0.06 0.04 0.02 0.00 0.00 0.01 0.03 0.03 0.01 0.00 0.00 0.01 0.04 0.09 0.03 0.02 0.00 0.00
0.00 0.00 0.02 0.04 0.05 0.05 0.06 0.04 0.03 0.03 0.11 0.16 0.05 0.00 0.01 0.02 0.02 0.03 0.02 0.04 0.09 0.27 0.51 0.43 0.28 0.11 0.05 0.00 0.00 0.00 0.00 0.01 0.04 0.02 0.00 0.01 0.00 0.01 0.03 0.14 0.08 0.02 0.01 0.00
0.00 0.00 0.01 0.03 0.04 0.03 0.03 0.03 0.03 0.04 0.10 0.22 0.06 0.00 0.00 0.00 0.00 0.01 0.02 0.02 0.04 0.11 0.15 0.13 0.03 0.01 0.06 0.01 0.00 0.00 0.00 0.00 0.00 0.00 0.01 0.07 0.17 0.10 0.06 0.06 0.02 0.01 0.00 0.00
0.01 0.01 0.02 0.03 0.04 0.01 0.03 0.05 0.04 0.06 0.19 0.28 0.06 0.00 0.00 0.02 0.01 0.01 0.02 0.03 0.03 0.08 0.07 0.01 0.00 0.00 0.04 0.01 0.00 0.00 0.00 0.00 0.00 0.00 0.04 0.05 0.07 0.08 0.03 0.03 0.03 0.01 0.06 0.05
0.01 0.01 0.01 0.02 0.03 0.01 0.00 0.01 0.01 0.03 0.15 0.28 0.14 0.00 0.00 0.01 0.01 0.01 0.03 0.05 0.09 0.05 0.02 0.00 0.00 0.00 0.02 0.02 0.00 0.00 0.00 0.00 0.00 0.00 0.02 0.01 0.01 0.01 0.01 0.01 0.01 0.01 0.02 0.03
0.01 0.02 0.01 0.01 0.01 0.01 0.01 0.01 0.02 0.03 0.03 0.04 0.01 0.00 0.00 0.02 0.04 0.05 0.01 0.02 0.01 0.01 0.01 0.00 0.00 0.00 0.01 0.00 0.00 0.00 0.00 0.00 0.00 0.00 0.00 0.00 0.00 0.01 0.01 0.00 0.01 0.01 0.00 0.00
0.02 0.01 0.01 0.00 0.02 0.02 0.06 0.05 0.05 0.05 0.04 0.03 0.01 0.00 0.00 0.07 0.13 0.08 0.03 0.01 0.00 0.01 0.00 0.00 0.00 0.00 0.00 0.00 0.00 0.00 0.00 0.00 0.00 0.01 0.00 0.00 0.00 0.00 0.00 0.00 0.00 0.00 0.00 0.00
0.01 0.01 0.01 0.01 0.06 0.05 0.05 0.07 0.04 0.01 0.02 0.01 0.00 0.00 0.00 0.00 0.08 0.13 0.11 0.07 0.03 0.04 0.01 0.03 0.04 0.00 0.00 0.00 0.00 0.01 0.01 0.00 0.00 0.01 0.01 0.00 0.01 0.00 0.00 0.00 0.00 0.00 0.00 0.00
0.00 0.02 0.05 0.03 0.06 0.10 0.04 0.03 0.02 0.01 0.01 0.02 0.04 0.04 0.03 0.01 0.01 0.06 0.20 0.19 0.11 0.05 0.03 0.12 0.07 0.01 0.02 0.02 0.02 0.02 0.01 0.00 0.00 0.00 0.00 0.00 0.01 0.01 0.00 0.00 0.00 0.00 0.00 0.00
0.01 0.01 0.02 0.06 0.13 0.08 0.05 0.02 0.04 0.11 0.11 0.12 0.29 0.33 0.30 0.19 0.13 0.12 0.02 0.06 0.04 0.07 0.09 0.07 0.05 0.03 0.01 0.03 0.04 0.02 0.01 0.00 0.00 0.00 0.00 0.02 0.04 0.05 0.01 0.00 0.00 0.00 0.00 0.00
0.04 0.01 0.02 0.07 0.06 0.01 0.01 0.04 0.12 0.22 0.16 0.10 0.17 0.32 0.31 0.18 0.23 0.17 0.07 0.06 0.06 0.07 0.03 0.09 0.05 0.01 0.00 0.04 0.03 0.05 0.10 0.01 0.01 0.01 0.00 0.01 0.02 0.02 0.00 0.00 0.00 0.00 0.00 0.00
0.03 0.11 0.05 0.01 0.02 0.03 0.06 0.07 0.07 0.06 0.03 0.04 0.09 0.21 0.23 0.23 0.18 0.10 0.09 0.12 0.05 0.03 0.14 0.14 0.01 0.00 0.00 0.01 0.00 0.01 0.10 0.04 0.00 0.00 0.00 0.00 0.00 0.00 0.00 0.00 0.00 0.00 0.00 0.00
0.02 0.04 0.01 0.03 0.03 0.04 0.04 0.02 0.00 0.00 0.00 0.01 0.05 0.24 0.17 0.17 0.09 0.11 0.07 0.06 0.06 0.15 0.06 0.00 0.00 0.00 0.00 0.01 0.08 0.04 0.06 0.01 0.00 0.00 0.00 0.00 0.00 0.00 0.00 0.00 0.00 0.00 0.00 0.00
0.01 0.00 0.00 0.01 0.00 0.00 0.00 0.00 0.00 0.00 0.00 0.02 0.04 0.16 0.08 0.11 0.01 0.00 0.00 0.03 0.05 0.00 0.00 0.00 0.00 0.00 0.00 0.00 0.03 0.02 0.00 0.00 0.00 0.00 0.00 0.00 0.00 0.00 0.00 0.00 0.00 0.00 0.00 0.00

GFSNW_prec_precacc6_183.txt.gz
Total_Precipitation_Accumulation
0.01 0.00 0.00 0.00 0.00 0.00 0.00 0.00 0.00 0.00 0.04 0.01 0.00 0.00 0.00 0.00 0.00 0.00 0.00 0.00 0.00 0.00 0.00 0.00 0.00 0.00 0.00 0.00 0.00 0.00 0.01 0.03 0.02 0.00 0.00 0.00 0.00 0.01 0.01 0.03 0.04 0.01 0.00 0.00
0.01 0.01 0.00 0.00 0.00 0.00 0.00 0.00 0.00 0.00 0.13 0.04 0.00 0.00 0.00 0.00 0.00 0.00 0.00 0.00 0.00 0.00 0.00 0.00 0.00 0.00 0.00 0.00 0.00 0.02 0.07 0.13 0.09 0.01 0.00 0.00 0.01 0.06 0.11 0.12 0.13 0.05 0.06 0.03
0.01 0.01 0.00 0.00 0.00 0.00 0.00 0.02 0.00 0.00 0.03 0.10 0.03 0.02 0.01 0.00 0.00 0.00 0.00 0.00 0.01 0.00 0.00 0.00 0.00 0.00 0.00 0.00 0.00 0.02 0.08 0.12 0.09 0.05 0.00 0.00 0.02 0.07 0.11 0.27 0.27 0.11 0.04 0.01
0.01 0.01 0.01 0.00 0.01 0.01 0.00 0.01 0.01 0.00 0.00 0.02 0.09 0.05 0.01 0.00 0.00 0.01 0.02 0.00 0.00 0.00 0.01 0.00 0.00 0.00 0.00 0.00 0.00 0.01 0.05 0.06 0.02 0.01 0.00 0.01 0.01 0.01 0.04 0.22 0.27 0.30 0.06 0.01
0.01 0.02 0.02 0.02 0.03 0.02 0.00 0.00 0.00 0.00 0.00 0.00 0.00 0.01 0.01 0.00 0.00 0.00 0.00 0.00 0.00 0.00 0.02 0.01 0.00 0.00 0.00 0.00 0.00 0.01 0.05 0.10 0.07 0.05 0.00 0.01 0.04 0.04 0.02 0.02 0.03 0.08 0.08 0.06
0.00 0.00 0.01 0.01 0.02 0.01 0.00 0.00 0.00 0.00 0.00 0.00 0.00 0.00 0.00 0.00 0.00 0.00 0.01 0.02 0.01 0.00 0.00 0.00 0.01 0.01 0.00 0.00 0.00 0.00 0.01 0.02 0.04 0.03 0.00 0.00 0.02 0.00 0.00 0.00 0.00 0.00 0.03 0.03
0.00 0.00 0.00 0.00 0.01 0.01 0.00 0.00 0.00 0.00 0.00 0.00 0.00 0.00 0.00 0.00 0.00 0.00 0.00 0.00 0.00 0.00 0.00 0.00 0.00 0.00 0.00 0.00 0.00 0.00 0.01 0.02 0.05 0.04 0.01 0.06 0.01 0.00 0.00 0.00 0.00 0.00 0.00 0.00
0.02 0.01 0.00 0.00 0.00 0.01 0.00 0.00 0.00 0.01 0.01 0.00 0.00 0.00 0.00 0.00 0.00 0.00 0.00 0.00 0.00 0.00 0.00 0.00 0.00 0.00 0.00 0.00 0.00 0.00 0.00 0.03 0.09 0.08 0.05 0.04 0.02 0.00 0.00 0.01 0.01 0.00 0.00 0.01
0.03 0.03 0.03 0.02 0.01 0.02 0.01 0.00 0.00 0.01 0.02 0.00 0.00 0.00 0.00 0.00 0.00 0.00 0.00 0.00 0.00 0.00 0.00 0.01 0.01 0.01 0.01 0.01 0.00 0.00 0.03 0.05 0.12 0.12 0.12 0.06 0.01 0.00 0.00 0.01 0.08 0.01 0.01 0.01
0.02 0.03 0.02 0.03 0.04 0.05 0.03 0.00 0.00 0.01 0.01 0.00 0.00 0.00 0.00 0.00 0.00 0.00 0.00 0.00 0.00 0.00 0.00 0.00 0.00 0.01 0.01 0.01 0.00 0.00 0.03 0.10 0.22 0.23 0.27 0.22 0.05 0.01 0.01 0.03 0.02 0.01 0.02 0.02
0.01 0.02 0.02 0.02 0.03 0.06 0.06 0.01 0.01 0.02 0.00 0.00 0.00 0.00 0.00 0.00 0.00 0.00 0.00 0.00 0.00 0.00 0.00 0.00 0.01 0.02 0.00 0.00 0.00 0.00 0.00 0.00 0.01 0.04 0.12 0.14 0.04 0.03 0.05 0.03 0.03 0.02 0.02 0.03
0.02 0.03 0.04 0.04 0.04 0.07 0.13 0.09 0.01 0.07 0.06 0.01 0.00 0.00 0.00 0.00 0.00 0.00 0.00 0.01 0.00 0.00 0.01 0.02 0.04 0.04 0.05 0.04 0.03 0.01 0.01 0.01 0.01 0.01 0.01 0.00 0.01 0.02 0.01 0.01 0.01 0.01 0.01 0.01
0.02 0.03 0.04 0.05 0.06 0.09 0.16 0.08 0.05 0.10 0.20 0.06 0.00 0.00 0.00 0.00 0.00 0.00 0.02 0.01 0.00 0.00 0.03 0.07 0.14 0.13 0.07 0.05 0.03 0.01 0.00 0.02 0.02 0.02 0.00 0.00 0.00 0.00 0.00 0.00 0.00 0.00 0.00 0.00
0.01 0.01 0.03 0.06 0.08 0.10 0.09 0.02 0.03 0.05 0.08 0.06 0.00 0.00 0.00 0.00 0.01 0.01 0.00 0.00 0.01 0.04 0.12 0.38 0.30 0.17 0.10 0.07 0.04 0.02 0.00 0.00 0.00 0.00 0.00 0.00 0.00 0.00 0.00 0.00 0.00 0.00 0.00 0.00
0.00 0.01 0.02 0.04 0.06 0.09 0.08 0.03 0.01 0.01 0.03 0.02 0.00 0.00 0.00 0.00 0.00 0.02 0.01 0.01 0.02 0.21 0.44 0.46 0.32 0.17 0.12 0.09 0.05 0.03 0.00 0.00 0.00 0.00 0.00 0.00 0.00 0.00 0.00 0.00 0.00 0.00 0.00 0.00
0.02 0.01 0.00 0.02 0.05 0.05 0.01 0.00 0.00 0.00 0.04 0.09 0.04 0.00 0.00 0.00 0.00 0.01 0.01 0.01 0.04 0.24 0.35 0.27 0.19 0.14 0.20 0.11 0.01 0.00 0.00 0.00 0.00 0.00 0.00 0.00 0.00 0.00 0.00 0.01 0.01 0.01 0.00 0.00
0.02 0.01 0.00 0.02 0.04 0.00 0.00 0.00 0.01 0.02 0.12 0.40 0.18 0.00 0.00 0.02 0.01 0.01 0.01 0.02 0.02 0.07 0.09 0.04 0.00 0.01 0.10 0.03 0.00 0.00 0.00 0.00 0.00 0.00 0.00 0.00 0.00 0.00 0.01 0.01 0.04 0.01 0.01 0.00
0.00 0.00 0.01 0.02 0.02 0.00 0.00 0.00 0.00 0.00 0.05 0.24 0.15 0.00 0.00 0.00 0.01 0.01 0.02 0.03 0.06 0.03 0.02 0.00 0.00 0.00 0.02 0.02 0.00 0.00 0.00 0.00 0.00 0.00 0.00 0.00 0.00 0.00 0.01 0.01 0.01 0.00 0.00 0.00
0.01 0.01 0.01 0.00 0.00 0.00 0.00 0.00 0.01 0.00 0.03 0.04 0.01 0.00 0.00 0.00 0.00 0.00 0.01 0.01 0.00 0.00 0.00 0.00 0.00 0.00 0.02 0.00 0.00 0.00 0.00 0.00 0.00 0.00 0.00 0.00 0.00 0.01 0.02 0.02 0.01 0.00 0.00 0.00
0.01 0.00 0.00 0.00 0.00 0.01 0.02 0.02 0.03 0.04 0.04 0.04 0.01 0.00 0.00 0.00 0.00 0.00 0.02 0.01 0.00 0.01 0.00 0.00 0.00 0.00 0.00 0.00 0.00 0.00 0.00 0.00 0.00 0.00 0.00 0.00 0.00 0.00 0.00 0.01 0.01 0.00 0.00 0.00
0.00 0.00 0.00 0.00 0.01 0.03 0.00 0.02 0.05 0.01 0.02 0.01 0.00 0.00 0.00 0.00 0.00 0.00 0.02 0.04 0.02 0.03 0.00 0.00 0.00 0.00 0.00 0.00 0.00 0.02 0.07 0.11 0.10 0.05 0.00 0.00 0.00 0.00 0.00 0.00 0.00 0.00 0.00 0.00
0.00 0.00 0.00 0.00 0.00 0.06 0.03 0.02 0.04 0.04 0.02 0.01 0.02 0.06 0.06 0.02 0.01 0.02 0.01 0.07 0.06 0.02 0.01 0.04 0.01 0.01 0.01 0.01 0.02 0.03 0.04 0.04 0.04 0.02 0.00 0.00 0.00 0.01 0.00 0.00 0.01 0.00 0.01 0.02
0.00 0.00 0.00 0.01 0.06 0.10 0.06 0.02 0.03 0.08 0.09 0.06 0.17 0.28 0.29 0.25 0.23 0.19 0.04 0.05 0.02 0.02 0.05 0.05 0.04 0.02 0.01 0.01 0.03 0.02 0.06 0.05 0.01 0.00 0.00 0.00 0.03 0.05 0.03 0.01 0.00 0.00 0.01 0.01
0.00 0.00 0.00 0.01 0.05 0.02 0.00 0.02 0.11 0.15 0.17 0.08 0.15 0.29 0.25 0.16 0.28 0.17 0.07 0.01 0.04 0.06 0.04 0.09 0.02 0.00 0.00 0.01 0.01 0.03 0.13 0.04 0.00 0.00 0.00 0.01 0.02 0.06 0.07 0.02 0.00 0.00 0.00 0.00
0.00 0.05 0.02 0.00 0.00 0.00 0.01 0.01 0.02 0.02 0.02 0.05 0.20 0.15 0.19 0.22 0.15 0.08 0.08 0.11 0.08 0.03 0.13 0.08 0.00 0.00 0.00 0.00 0.00 0.01 0.11 0.17 0.02 0.00 0.00 0.01 0.00 0.02 0.03 0.00 0.00 0.00 0.00 0.00
0.00 0.00 0.00 0.00 0.00 0.00 0.00 0.00 0.00 0.00 0.00 0.03 0.07 0.15 0.16 0.20 0.09 0.11 0.08 0.06 0.06 0.13 0.07 0.00 0.00 0.00 0.00 0.00 0.03 0.04 0.12 0.12 0.10 0.05 0.03 0.02 0.00 0.00 0.00 0.00 0.00 0.00 0.00 0.00
0.00 0.00 0.00 0.00 0.00 0.00 0.00 0.00 0.00 0.00 0.01 0.02 0.02 0.13 0.16 0.16 0.04 0.01 0.00 0.01 0.05 0.01 0.00 0.00 0.00 0.00 0.00 0.00 0.03 0.03 0.05 0.00 0.00 0.00 0.00 0.00 0.00 0.00 0.00 0.00 0.00 0.00 0.00 0.00